FYI1648 LICC-EVRA

Flight info

Callsign FYI1648
Flight time 3h 8m
Altitude 34000
Route BUDIN DCT SOBRI DCT XOLTA DCT VEBAL DCT SOGMO DCT ALAMU DCT LOGDA DCT BOKSU DCT ERIVA
Aircraft A320/M-SDE3FGHIRWY/LB1

Departure

Time 2026-05-05 13:19
Airport Catania-Fontanarossa Airport (LICC)

Arrival

Time 2026-05-05 16:27
Airport Riga International Airport (EVRA)
Time Latitude Longitude Altitude Speed Heading
2026-05-05 12:43 37.46947 15.06527 50 ft 0 kts 19°
2026-05-05 12:46 37.46946 15.06527 50 ft 0 kts 19°
2026-05-05 13:01 37.46946 15.06526 51 ft 0 kts 19°
2026-05-05 13:09 37.46927 15.06519 51 ft 4 kts 17°
2026-05-05 13:09 37.46901 15.06509 48 ft 4 kts 16°
2026-05-05 13:09 37.46878 15.06500 47 ft 3 kts 19°
2026-05-05 13:10 37.46854 15.06495 46 ft 4 kts 339°
2026-05-05 13:10 37.46838 15.06514 51 ft 4 kts 282°
2026-05-05 13:10 37.46836 15.06547 51 ft 4 kts 264°
2026-05-05 13:10 37.46837 15.06554 51 ft 3 kts 264°
2026-05-05 13:12 37.46836 15.06549 51 ft 4 kts 264°
2026-05-05 13:13 37.46830 15.06470 48 ft 11 kts 264°
2026-05-05 13:13 37.46821 15.06372 48 ft 14 kts 264°
2026-05-05 13:13 37.46809 15.06224 51 ft 19 kts 264°
2026-05-05 13:13 37.46796 15.06066 51 ft 17 kts 263°
2026-05-05 13:14 37.46784 15.05925 51 ft 15 kts 264°
2026-05-05 13:14 37.46772 15.05786 51 ft 17 kts 264°
2026-05-05 13:14 37.46760 15.05649 51 ft 15 kts 264°
2026-05-05 13:14 37.46747 15.05493 51 ft 24 kts 264°
2026-05-05 13:15 37.46738 15.05371 51 ft 7 kts 264°
2026-05-05 13:15 37.46725 15.05321 51 ft 5 kts 237°
2026-05-05 13:15 37.46703 15.05294 51 ft 4 kts 224°
2026-05-05 13:15 37.46688 15.05276 51 ft 2 kts 223°
2026-05-05 13:16 37.46681 15.05267 51 ft 1 kts 223°
2026-05-05 13:16 37.46679 15.05265 51 ft 0 kts 223°
2026-05-05 13:17 37.46668 15.05251 51 ft 4 kts 223°
2026-05-05 13:17 37.46645 15.05225 49 ft 4 kts 223°
2026-05-05 13:17 37.46617 15.05196 51 ft 6 kts 209°
2026-05-05 13:17 37.46572 15.05209 51 ft 10 kts 134°
2026-05-05 13:18 37.46566 15.05296 51 ft 11 kts 85°
2026-05-05 13:18 37.46568 15.05334 50 ft 0 kts 84°
2026-05-05 13:18 37.46578 15.05480 49 ft 50 kts 84°
2026-05-05 13:19 37.46641 15.06204 51 ft 113 kts 84°
2026-05-05 13:19 37.46741 15.07401 118 ft 156 kts 84°
2026-05-05 13:19 37.46867 15.08746 812 ft 156 kts 84°
2026-05-05 13:19 37.47031 15.10107 1549 ft 159 kts 82°
2026-05-05 13:20 37.47216 15.11544 1993 ft 173 kts 81°
2026-05-05 13:20 37.47425 15.13102 2319 ft 190 kts 81°
2026-05-05 13:20 37.47657 15.14837 2548 ft 211 kts 82°
2026-05-05 13:20 37.47910 15.16725 2856 ft 228 kts 81°
2026-05-05 13:21 37.48203 15.18786 3195 ft 248 kts 81°
2026-05-05 13:21 37.48516 15.20965 3816 ft 257 kts 80°
2026-05-05 13:21 37.48836 15.23195 4569 ft 260 kts 79°
2026-05-05 13:21 37.49159 15.25456 5324 ft 264 kts 79°
2026-05-05 13:22 37.49721 15.27657 6064 ft 266 kts 61°
2026-05-05 13:22 37.50796 15.29579 6678 ft 275 kts 44°
2026-05-05 13:22 37.52333 15.31032 7288 ft 279 kts 28°
2026-05-05 13:22 37.54007 15.32313 7971 ft 284 kts 29°
2026-05-05 13:23 37.55698 15.33629 8679 ft 288 kts 30°
2026-05-05 13:23 37.57410 15.34970 9389 ft 291 kts 30°
2026-05-05 13:23 37.59143 15.36331 10068 ft 296 kts 30°
2026-05-05 13:23 37.60902 15.37714 10657 ft 302 kts 29°
2026-05-05 13:24 37.62756 15.39169 10813 ft 325 kts 29°
2026-05-05 13:24 37.64713 15.40702 11022 ft 344 kts 30°
2026-05-05 13:24 37.66772 15.42320 11520 ft 352 kts 30°
2026-05-05 13:24 37.68955 15.43827 12116 ft 354 kts 19°
2026-05-05 13:25 37.71324 15.44659 12710 ft 354 kts
2026-05-05 13:25 37.73776 15.44740 13311 ft 353 kts 351°
2026-05-05 13:25 37.76167 15.44079 13923 ft 352 kts 337°
2026-05-05 13:25 37.78448 15.42947 14470 ft 354 kts 335°
2026-05-05 13:26 37.80745 15.41794 15019 ft 356 kts 335°
2026-05-05 13:26 37.83059 15.40636 15574 ft 359 kts 335°
2026-05-05 13:26 37.85390 15.39472 16121 ft 362 kts 335°
2026-05-05 13:26 37.87739 15.38297 16671 ft 364 kts 335°
2026-05-05 13:27 37.90105 15.37112 17213 ft 367 kts 335°
2026-05-05 13:27 37.92489 15.35917 17746 ft 370 kts 335°
2026-05-05 13:27 37.94855 15.34728 18267 ft 372 kts 335°
2026-05-05 13:27 37.97300 15.33496 18743 ft 374 kts 335°
2026-05-05 13:28 37.99729 15.32271 19180 ft 378 kts 335°
2026-05-05 13:28 38.02150 15.31053 19608 ft 381 kts 335°
2026-05-05 13:28 38.04624 15.29809 20034 ft 384 kts 335°
2026-05-05 13:28 38.07114 15.28556 20462 ft 386 kts 335°
2026-05-05 13:29 38.09621 15.27292 20848 ft 389 kts 335°
2026-05-05 13:29 38.12147 15.26016 21248 ft 392 kts 335°
2026-05-05 13:29 38.14695 15.24731 21666 ft 395 kts 335°
2026-05-05 13:29 38.17260 15.23436 22075 ft 398 kts 335°
2026-05-05 13:30 38.19844 15.22130 22483 ft 401 kts 335°
2026-05-05 13:30 38.22443 15.20817 22861 ft 404 kts 335°
2026-05-05 13:30 38.25060 15.19492 23240 ft 406 kts 335°
2026-05-05 13:30 38.27693 15.18157 23619 ft 409 kts 335°
2026-05-05 13:31 38.30344 15.16812 23949 ft 411 kts 335°
2026-05-05 13:31 38.33004 15.15459 24296 ft 412 kts 335°
2026-05-05 13:31 38.35670 15.14105 24637 ft 413 kts 335°
2026-05-05 13:31 38.38348 15.12746 25005 ft 414 kts 335°
2026-05-05 13:32 38.41027 15.11386 25345 ft 415 kts 335°
2026-05-05 13:32 38.43711 15.10018 25677 ft 416 kts 335°
2026-05-05 13:32 38.46464 15.08831 25996 ft 421 kts 343°
2026-05-05 13:32 38.49375 15.08276 26317 ft 427 kts 353°
2026-05-05 13:33 38.52366 15.08376 26618 ft 432 kts 360°
2026-05-05 13:33 38.55372 15.08630 26930 ft 434 kts 359°
2026-05-05 13:33 38.58387 15.08881 27227 ft 435 kts 359°
2026-05-05 13:33 38.61415 15.09130 27545 ft 436 kts 359°
2026-05-05 13:34 38.64448 15.09380 27850 ft 438 kts 359°
2026-05-05 13:34 38.67492 15.09630 28149 ft 439 kts 359°
2026-05-05 13:34 38.70547 15.09878 28440 ft 441 kts 359°
2026-05-05 13:34 38.73612 15.10123 28720 ft 442 kts 359°
2026-05-05 13:35 38.76686 15.10372 28991 ft 443 kts 359°
2026-05-05 13:35 38.79772 15.10623 29250 ft 445 kts 359°
2026-05-05 13:35 38.82826 15.10875 29526 ft 446 kts 358°
2026-05-05 13:35 38.85927 15.11132 29787 ft 447 kts 358°
2026-05-05 13:36 38.89036 15.11391 30042 ft 448 kts 358°
2026-05-05 13:36 38.92152 15.11649 30323 ft 448 kts 358°
2026-05-05 13:36 38.95260 15.11906 30654 ft 447 kts 358°
2026-05-05 13:36 38.98356 15.12161 30986 ft 445 kts 358°
2026-05-05 13:37 39.01436 15.12416 31314 ft 443 kts 358°
2026-05-05 13:37 39.04507 15.12672 31653 ft 441 kts 358°
2026-05-05 13:37 39.07561 15.12925 31991 ft 440 kts 358°
2026-05-05 13:37 39.10612 15.13239 32328 ft 439 kts 360°
2026-05-05 13:38 39.13648 15.13670 32656 ft 439 kts
2026-05-05 13:38 39.16673 15.14183 32967 ft 438 kts
2026-05-05 13:38 39.19687 15.14733 33271 ft 437 kts
2026-05-05 13:38 39.22690 15.15281 33576 ft 435 kts
2026-05-05 13:39 39.25686 15.15810 33903 ft 434 kts
2026-05-05 13:39 39.28676 15.16312 34072 ft 433 kts
2026-05-05 13:39 39.34591 15.17268 34110 ft 426 kts
2026-05-05 13:40 39.40470 15.18197 34111 ft 425 kts
2026-05-05 13:40 39.46347 15.19158 34111 ft 425 kts
2026-05-05 13:41 39.52223 15.20125 34105 ft 426 kts
2026-05-05 13:41 39.58112 15.21082 34108 ft 426 kts
2026-05-05 13:42 39.63999 15.22045 34114 ft 426 kts
2026-05-05 13:42 39.69885 15.23018 34112 ft 426 kts
2026-05-05 13:43 39.75776 15.23992 34117 ft 427 kts
2026-05-05 13:43 39.81667 15.24967 34119 ft 427 kts
2026-05-05 13:44 39.87550 15.25945 34106 ft 426 kts
2026-05-05 13:44 39.93433 15.26923 34114 ft 427 kts
2026-05-05 13:45 39.99336 15.27902 34096 ft 427 kts
2026-05-05 13:45 40.05194 15.28878 34091 ft 428 kts
2026-05-05 13:46 40.11133 15.29870 34116 ft 427 kts
2026-05-05 13:46 40.17030 15.30854 34108 ft 427 kts
2026-05-05 13:47 40.22929 15.31830 34106 ft 427 kts
2026-05-05 13:47 40.28834 15.32809 34104 ft 427 kts
2026-05-05 13:48 40.34735 15.33802 34109 ft 428 kts
2026-05-05 13:48 40.40643 15.34802 34091 ft 429 kts
2026-05-05 13:49 40.46529 15.35792 34093 ft 430 kts
2026-05-05 13:49 40.52467 15.36789 34083 ft 430 kts
2026-05-05 13:50 40.58451 15.37793 34080 ft 432 kts
2026-05-05 13:50 40.64429 15.38798 34074 ft 434 kts
2026-05-05 13:51 40.70391 15.39821 34068 ft 435 kts
2026-05-05 13:51 40.76395 15.40850 34072 ft 435 kts
2026-05-05 13:52 40.82438 15.41876 34225 ft 440 kts
2026-05-05 13:52 40.85482 15.42391 34415 ft 441 kts
2026-05-05 13:52 40.88522 15.42909 34636 ft 441 kts
2026-05-05 13:53 40.91562 15.43430 34846 ft 440 kts
2026-05-05 13:53 40.94594 15.43951 35088 ft 439 kts
2026-05-05 13:53 40.97633 15.44470 35247 ft 440 kts
2026-05-05 13:53 41.00670 15.44990 35428 ft 440 kts
2026-05-05 13:54 41.03703 15.45509 35630 ft 440 kts
2026-05-05 13:54 41.06737 15.46030 35820 ft 439 kts
2026-05-05 13:54 41.09763 15.46552 36037 ft 438 kts
2026-05-05 13:54 41.12782 15.47071 36250 ft 437 kts
2026-05-05 13:55 41.15793 15.47587 36455 ft 437 kts
2026-05-05 13:55 41.18809 15.48102 36601 ft 437 kts
2026-05-05 13:55 41.20807 15.48445 36705 ft 437 kts
2026-05-05 13:55 41.23857 15.48970 36881 ft 436 kts
2026-05-05 13:56 41.26823 15.49481 37047 ft 435 kts
2026-05-05 13:56 41.29824 15.50000 37082 ft 435 kts
2026-05-05 13:56 41.35823 15.51038 37094 ft 435 kts
2026-05-05 13:57 41.41842 15.52080 37086 ft 437 kts
2026-05-05 13:57 41.47885 15.53129 37087 ft 438 kts
2026-05-05 13:58 41.53932 15.54187 37082 ft 438 kts
2026-05-05 13:58 41.59983 15.55239 37074 ft 439 kts
2026-05-05 13:59 41.69095 15.56822 37050 ft 441 kts
2026-05-05 14:00 41.78231 15.58418 37044 ft 442 kts
2026-05-05 14:00 41.84294 15.59493 36586 ft 437 kts
2026-05-05 14:01 41.87312 15.60026 35928 ft 438 kts
2026-05-05 14:01 41.90349 15.60556 35223 ft 441 kts 360°
2026-05-05 14:01 41.93404 15.61086 34514 ft 445 kts 359°
2026-05-05 14:01 41.96476 15.61620 34192 ft 446 kts
2026-05-05 14:02 41.99559 15.62162 34025 ft 448 kts
2026-05-05 14:02 42.02652 15.62719 34067 ft 449 kts
2026-05-05 14:02 42.08847 15.63826 34053 ft 450 kts
2026-05-05 14:03 42.15050 15.64937 34056 ft 449 kts 360°
2026-05-05 14:03 42.21221 15.66036 34023 ft 446 kts
2026-05-05 14:04 42.27381 15.67128 34024 ft 446 kts
2026-05-05 14:04 42.33537 15.68220 34027 ft 446 kts
2026-05-05 14:05 42.39689 15.69321 34053 ft 445 kts
2026-05-05 14:05 42.45817 15.70414 34052 ft 443 kts
2026-05-05 14:06 42.51929 15.71505 34048 ft 442 kts
2026-05-05 14:06 42.58025 15.72603 34063 ft 441 kts
2026-05-05 14:07 42.64111 15.73704 34056 ft 440 kts
2026-05-05 14:07 42.70175 15.74879 34051 ft 443 kts
2026-05-05 14:08 42.76086 15.77358 34057 ft 448 kts 12°
2026-05-05 14:08 42.82004 15.80017 34055 ft 448 kts 12°
2026-05-05 14:09 42.87921 15.82650 34048 ft 447 kts 12°
2026-05-05 14:09 42.93838 15.85289 34063 ft 447 kts 12°
2026-05-05 14:10 42.99749 15.87933 34057 ft 447 kts 12°
2026-05-05 14:10 43.05653 15.90586 34053 ft 447 kts 12°
2026-05-05 14:11 43.11553 15.93246 34071 ft 446 kts 12°
2026-05-05 14:11 43.17445 15.95903 34066 ft 446 kts 12°
2026-05-05 14:12 43.23336 15.98561 34057 ft 445 kts 12°
2026-05-05 14:12 43.29213 16.01219 34080 ft 444 kts 13°
2026-05-05 14:13 43.35080 16.03884 34089 ft 444 kts 12°
2026-05-05 14:13 43.40936 16.06562 34099 ft 443 kts 12°
2026-05-05 14:14 43.46793 16.09224 34103 ft 443 kts 12°
2026-05-05 14:14 43.52653 16.11888 34122 ft 443 kts 13°
2026-05-05 14:15 43.58508 16.14564 34116 ft 443 kts 13°
2026-05-05 14:15 43.64363 16.17249 34075 ft 443 kts 13°
2026-05-05 14:16 43.70223 16.19939 34074 ft 444 kts 13°
2026-05-05 14:16 43.76078 16.22631 34076 ft 443 kts 13°
2026-05-05 14:17 43.81933 16.25331 34074 ft 443 kts 13°
2026-05-05 14:17 43.87787 16.28040 34075 ft 444 kts 13°
2026-05-05 14:18 43.93641 16.30753 34074 ft 444 kts 13°
2026-05-05 14:18 43.99501 16.33471 34066 ft 444 kts 13°
2026-05-05 14:19 44.05357 16.36192 34064 ft 444 kts 14°
2026-05-05 14:19 44.11223 16.38926 34061 ft 445 kts 14°
2026-05-05 14:20 44.17087 16.41668 34055 ft 445 kts 14°
2026-05-05 14:20 44.22957 16.44410 34059 ft 445 kts 15°
2026-05-05 14:21 44.28832 16.47163 34046 ft 445 kts 14°
2026-05-05 14:21 44.34706 16.49923 34039 ft 446 kts 15°
2026-05-05 14:22 44.40592 16.52696 34040 ft 446 kts 15°
2026-05-05 14:22 44.46482 16.55473 34027 ft 447 kts 15°
2026-05-05 14:23 44.52373 16.58265 34016 ft 447 kts 15°
2026-05-05 14:23 44.58270 16.61066 34021 ft 447 kts 16°
2026-05-05 14:24 44.64127 16.63839 34013 ft 448 kts 16°
2026-05-05 14:24 44.70030 16.66642 34012 ft 447 kts 16°
2026-05-05 14:25 44.75922 16.69450 34010 ft 448 kts 17°
2026-05-05 14:25 44.81823 16.72278 33994 ft 448 kts 17°
2026-05-05 14:26 44.87729 16.75106 33987 ft 448 kts 17°
2026-05-05 14:26 44.93635 16.77946 33982 ft 449 kts 17°
2026-05-05 14:27 44.99553 16.80791 33970 ft 450 kts 17°
2026-05-05 14:27 45.05491 16.83654 33961 ft 451 kts 17°
2026-05-05 14:28 45.11429 16.86528 33968 ft 451 kts 17°
2026-05-05 14:28 45.17372 16.89404 33978 ft 451 kts 17°
2026-05-05 14:29 45.23304 16.92279 33977 ft 450 kts 17°
2026-05-05 14:29 45.29226 16.95161 33979 ft 450 kts 17°
2026-05-05 14:30 45.35150 16.98049 33979 ft 450 kts 17°
2026-05-05 14:30 45.41069 17.00947 33970 ft 450 kts 17°
2026-05-05 14:31 45.46987 17.03844 33961 ft 450 kts 17°
2026-05-05 14:31 45.52901 17.06749 33957 ft 449 kts 17°
2026-05-05 14:32 45.58809 17.09657 33958 ft 449 kts 17°
2026-05-05 14:32 45.64718 17.12576 33960 ft 449 kts 17°
2026-05-05 14:33 45.70632 17.15495 33958 ft 450 kts 17°
2026-05-05 14:33 45.76556 17.18412 33944 ft 450 kts 17°
2026-05-05 14:34 45.82476 17.21348 33942 ft 451 kts 17°
2026-05-05 14:34 45.88399 17.24305 33952 ft 450 kts 17°
2026-05-05 14:35 45.94312 17.27267 33953 ft 450 kts 17°
2026-05-05 14:35 46.00173 17.30225 33947 ft 449 kts 18°
2026-05-05 14:36 46.05960 17.33650 33947 ft 450 kts 21°
2026-05-05 14:36 46.11669 17.37353 33943 ft 450 kts 22°
2026-05-05 14:37 46.17422 17.41043 33937 ft 449 kts 21°
2026-05-05 14:37 46.23155 17.44617 33932 ft 449 kts 21°
2026-05-05 14:38 46.28895 17.48177 33921 ft 449 kts 20°
2026-05-05 14:38 46.34639 17.51765 33914 ft 450 kts 21°
2026-05-05 14:39 46.40351 17.55348 33910 ft 451 kts 21°
2026-05-05 14:39 46.46106 17.58980 33916 ft 451 kts 21°
2026-05-05 14:40 46.51860 17.62621 33914 ft 451 kts 21°
2026-05-05 14:40 46.57612 17.66261 33914 ft 451 kts 21°
2026-05-05 14:41 46.63378 17.69861 33916 ft 451 kts 19°
2026-05-05 14:41 46.68262 17.72637 33940 ft 449 kts 17°
2026-05-05 14:42 46.74062 17.75776 33934 ft 447 kts 17°
2026-05-05 14:42 46.79885 17.78992 33931 ft 447 kts 18°
2026-05-05 14:43 46.85677 17.82276 33934 ft 446 kts 18°
2026-05-05 14:43 46.91460 17.85572 33925 ft 446 kts 18°
2026-05-05 14:44 46.97245 17.88859 33918 ft 446 kts 18°
2026-05-05 14:44 47.03023 17.92146 33923 ft 446 kts 18°
2026-05-05 14:45 47.08810 17.95446 33902 ft 447 kts 18°
2026-05-05 14:45 47.14609 17.98763 33895 ft 448 kts 18°
2026-05-05 14:46 47.20419 18.02090 33898 ft 448 kts 18°
2026-05-05 14:46 47.26228 18.05421 33914 ft 448 kts 19°
2026-05-05 14:47 47.32031 18.08764 33912 ft 447 kts 18°
2026-05-05 14:47 47.37824 18.12110 33911 ft 447 kts 18°
2026-05-05 14:48 47.43608 18.15459 33911 ft 447 kts 18°
2026-05-05 14:48 47.49395 18.18810 33907 ft 447 kts 18°
2026-05-05 14:49 47.55173 18.22173 33905 ft 446 kts 19°
2026-05-05 14:49 47.60956 18.25545 33905 ft 446 kts 18°
2026-05-05 14:50 47.66729 18.28913 33911 ft 446 kts 19°
2026-05-05 14:50 47.72496 18.32296 33907 ft 446 kts 19°
2026-05-05 14:51 47.78240 18.35736 33900 ft 445 kts 20°
2026-05-05 14:51 47.83922 18.39272 33902 ft 445 kts 20°
2026-05-05 14:52 47.89673 18.42877 33896 ft 445 kts 20°
2026-05-05 14:52 47.95356 18.46405 33893 ft 446 kts 20°
2026-05-05 14:53 48.01079 18.49968 33885 ft 445 kts 20°
2026-05-05 14:53 48.06798 18.53537 33880 ft 446 kts 21°
2026-05-05 14:54 48.12519 18.57114 33877 ft 446 kts 20°
2026-05-05 14:54 48.18246 18.60693 33877 ft 446 kts 20°
2026-05-05 14:55 48.23977 18.64290 33884 ft 447 kts 20°
2026-05-05 14:55 48.29710 18.67907 33886 ft 447 kts 20°
2026-05-05 14:56 48.35452 18.71537 33891 ft 448 kts 20°
2026-05-05 14:56 48.41198 18.75178 33890 ft 448 kts 20°
2026-05-05 14:57 48.46941 18.78826 33887 ft 449 kts 20°
2026-05-05 14:57 48.52698 18.82484 33887 ft 449 kts 21°
2026-05-05 14:58 48.58458 18.86146 33883 ft 449 kts 20°
2026-05-05 14:58 48.64214 18.89826 33925 ft 452 kts 21°
2026-05-05 14:59 48.67119 18.91691 34074 ft 454 kts 21°
2026-05-05 14:59 48.70026 18.93564 34312 ft 455 kts 21°
2026-05-05 14:59 48.72938 18.95443 34537 ft 455 kts 21°
2026-05-05 14:59 48.75850 18.97322 34811 ft 454 kts 20°
2026-05-05 15:00 48.78755 18.99193 35018 ft 454 kts 20°
2026-05-05 15:00 48.80685 19.00433 35159 ft 454 kts 21°
2026-05-05 15:00 48.84567 19.02931 35449 ft 453 kts 20°
2026-05-05 15:00 48.87472 19.04800 35622 ft 454 kts 20°
2026-05-05 15:01 48.90372 19.06669 35864 ft 453 kts 21°
2026-05-05 15:01 48.93274 19.08548 35914 ft 453 kts 21°
2026-05-05 15:01 48.99050 19.12311 35907 ft 452 kts 21°
2026-05-05 15:02 49.04830 19.16075 35917 ft 451 kts 20°
2026-05-05 15:02 49.10600 19.19831 35894 ft 450 kts 21°
2026-05-05 15:03 49.16368 19.23597 35906 ft 450 kts 20°
2026-05-05 15:03 49.22123 19.27361 35891 ft 450 kts 22°
2026-05-05 15:04 49.27874 19.31141 35879 ft 450 kts 20°
2026-05-05 15:04 49.33628 19.34941 35871 ft 451 kts 20°
2026-05-05 15:05 49.42274 19.40676 35971 ft 453 kts 20°
2026-05-05 15:05 49.45169 19.42588 36132 ft 453 kts 21°
2026-05-05 15:06 49.48065 19.44508 36307 ft 453 kts 21°
2026-05-05 15:06 49.50953 19.46430 36519 ft 452 kts 20°
2026-05-05 15:06 49.53840 19.48354 36677 ft 452 kts 20°
2026-05-05 15:06 49.56726 19.50280 36890 ft 451 kts 20°
2026-05-05 15:07 49.59601 19.52201 37086 ft 451 kts 20°
2026-05-05 15:07 49.62480 19.54118 37243 ft 450 kts 21°
2026-05-05 15:07 49.65352 19.56035 37458 ft 449 kts 21°
2026-05-05 15:07 49.68222 19.57958 37600 ft 449 kts 20°
2026-05-05 15:08 49.71084 19.59882 37803 ft 448 kts 21°
2026-05-05 15:08 49.73933 19.61801 37578 ft 447 kts 22°
2026-05-05 15:08 49.76792 19.63723 36884 ft 448 kts 21°
2026-05-05 15:08 49.79651 19.65643 36164 ft 450 kts 20°
2026-05-05 15:09 49.82535 19.67579 35426 ft 452 kts 20°
2026-05-05 15:09 49.85419 19.69522 34733 ft 453 kts 21°
2026-05-05 15:09 49.88320 19.71482 33983 ft 457 kts 22°
2026-05-05 15:09 49.91229 19.73456 33289 ft 456 kts 22°
2026-05-05 15:10 49.94144 19.75437 32499 ft 457 kts 22°
2026-05-05 15:10 49.97055 19.77415 31989 ft 455 kts 22°
2026-05-05 15:10 49.99932 19.79366 31789 ft 447 kts 22°
2026-05-05 15:11 50.05606 19.83218 31836 ft 444 kts 22°
2026-05-05 15:11 50.11230 19.87056 31838 ft 444 kts 22°
2026-05-05 15:12 50.16897 19.90938 31838 ft 445 kts 22°
2026-05-05 15:12 50.22559 19.94830 31837 ft 445 kts 22°
2026-05-05 15:13 50.28218 19.98718 31162 ft 444 kts 22°
2026-05-05 15:13 50.31032 20.00649 30884 ft 441 kts 22°
2026-05-05 15:13 50.33840 20.02582 30816 ft 440 kts 22°
2026-05-05 15:14 50.39455 20.06467 30831 ft 441 kts 22°
2026-05-05 15:14 50.45069 20.10369 30827 ft 441 kts 22°
2026-05-05 15:15 50.50686 20.14273 30830 ft 441 kts 22°
2026-05-05 15:15 50.56301 20.18181 30829 ft 442 kts 22°
2026-05-05 15:16 50.61924 20.22111 30822 ft 442 kts 22°
2026-05-05 15:16 50.67541 20.26050 30820 ft 442 kts 22°
2026-05-05 15:17 50.73161 20.29996 30820 ft 442 kts 22°
2026-05-05 15:17 50.78773 20.33953 30819 ft 442 kts 22°
2026-05-05 15:18 50.84394 20.37918 30817 ft 442 kts 22°
2026-05-05 15:18 50.90013 20.41896 30809 ft 442 kts 22°
2026-05-05 15:19 50.95626 20.45886 30814 ft 442 kts 22°
2026-05-05 15:19 51.01242 20.49874 30811 ft 443 kts 22°
2026-05-05 15:20 51.06869 20.53886 30808 ft 443 kts 22°
2026-05-05 15:20 51.12452 20.57873 30807 ft 443 kts 22°
2026-05-05 15:21 51.18068 20.61907 30812 ft 443 kts 22°
2026-05-05 15:21 51.23683 20.65954 30813 ft 443 kts 22°
2026-05-05 15:22 51.29298 20.70012 30804 ft 443 kts 22°
2026-05-05 15:22 51.34909 20.74075 30807 ft 443 kts 22°
2026-05-05 15:23 51.40517 20.78165 30824 ft 443 kts 22°
2026-05-05 15:23 51.46125 20.82260 30820 ft 443 kts 22°
2026-05-05 15:24 51.51730 20.86361 30816 ft 443 kts 22°
2026-05-05 15:24 51.57337 20.90479 30811 ft 443 kts 22°
2026-05-05 15:25 51.62936 20.94601 30807 ft 443 kts 22°
2026-05-05 15:25 51.68541 20.98729 30800 ft 443 kts 22°
2026-05-05 15:26 51.74140 21.02862 30797 ft 443 kts 22°
2026-05-05 15:26 51.79734 21.07019 30797 ft 443 kts 22°
2026-05-05 15:27 51.85326 21.11187 30796 ft 443 kts 22°
2026-05-05 15:27 51.89979 21.14649 30789 ft 443 kts 22°
2026-05-05 15:28 51.95582 21.18821 30787 ft 443 kts 22°
2026-05-05 15:28 52.01184 21.23030 30787 ft 444 kts 22°
2026-05-05 15:29 52.06784 21.27259 30805 ft 444 kts 22°
2026-05-05 15:29 52.12385 21.31481 30802 ft 444 kts 22°
2026-05-05 15:30 52.17989 21.35705 30798 ft 444 kts 22°
2026-05-05 15:30 52.23588 21.39943 30791 ft 444 kts 22°
2026-05-05 15:31 52.29187 21.44206 30803 ft 444 kts 22°
2026-05-05 15:31 52.34779 21.48479 30799 ft 444 kts 22°
2026-05-05 15:32 52.40370 21.52757 30797 ft 443 kts 22°
2026-05-05 15:32 52.45955 21.57034 30794 ft 443 kts 22°
2026-05-05 15:33 52.51540 21.61319 30804 ft 443 kts 22°
2026-05-05 15:33 52.57123 21.65624 30797 ft 443 kts 22°
2026-05-05 15:34 52.62704 21.69943 30791 ft 443 kts 22°
2026-05-05 15:34 52.68248 21.74242 30793 ft 443 kts 22°
2026-05-05 15:35 52.73826 21.78584 30805 ft 444 kts 22°
2026-05-05 15:35 52.79412 21.82949 30789 ft 444 kts 22°
2026-05-05 15:36 52.85000 21.87315 30797 ft 445 kts 22°
2026-05-05 15:36 52.90600 21.91699 30801 ft 445 kts 22°
2026-05-05 15:37 52.96198 21.96100 30815 ft 445 kts 22°
2026-05-05 15:37 53.01801 22.00520 30808 ft 446 kts 22°
2026-05-05 15:38 53.07411 22.04961 30808 ft 447 kts 22°
2026-05-05 15:38 53.13025 22.09421 30815 ft 447 kts 22°
2026-05-05 15:39 53.18645 22.13892 30835 ft 447 kts 22°
2026-05-05 15:39 53.24266 22.18373 30823 ft 448 kts 22°
2026-05-05 15:40 53.29891 22.22868 30828 ft 448 kts 22°
2026-05-05 15:40 53.35519 22.27384 30829 ft 449 kts 22°
2026-05-05 15:41 53.41145 22.31910 30833 ft 449 kts 22°
2026-05-05 15:41 53.46736 22.36428 30845 ft 449 kts 22°
2026-05-05 15:42 53.52368 22.40999 30846 ft 449 kts 22°
2026-05-05 15:42 53.57997 22.45572 30845 ft 450 kts 22°
2026-05-05 15:43 53.63631 22.50149 30845 ft 450 kts 22°
2026-05-05 15:43 53.69268 22.54754 30863 ft 450 kts 22°
2026-05-05 15:44 53.74898 22.59382 30864 ft 450 kts 22°
2026-05-05 15:44 53.80527 22.64008 30863 ft 450 kts 22°
2026-05-05 15:45 53.86162 22.68649 30867 ft 450 kts 22°
2026-05-05 15:45 53.91784 22.73305 30863 ft 450 kts 22°
2026-05-05 15:46 53.97407 22.77974 30866 ft 450 kts 22°
2026-05-05 15:46 54.03034 22.82641 30864 ft 450 kts 22°
2026-05-05 15:47 54.08665 22.87332 30868 ft 450 kts 22°
2026-05-05 15:47 54.14288 22.92040 30879 ft 451 kts 22°
2026-05-05 15:48 54.19917 22.96768 30869 ft 451 kts 22°
2026-05-05 15:48 54.25547 23.01514 30867 ft 451 kts 22°
2026-05-05 15:49 54.31181 23.06281 30867 ft 451 kts 22°
2026-05-05 15:49 54.36911 23.10646 30884 ft 450 kts 18°
2026-05-05 15:50 54.42728 23.14662 30871 ft 451 kts 18°
2026-05-05 15:50 54.48545 23.18737 30868 ft 452 kts 19°
2026-05-05 15:51 54.54352 23.22955 30873 ft 453 kts 19°
2026-05-05 15:51 54.60146 23.27223 30889 ft 453 kts 19°
2026-05-05 15:52 54.65955 23.31481 30877 ft 454 kts 19°
2026-05-05 15:52 54.71777 23.35751 30878 ft 455 kts 19°
2026-05-05 15:53 54.77597 23.40041 30882 ft 455 kts 19°
2026-05-05 15:53 54.83418 23.44378 30901 ft 455 kts 18°
2026-05-05 15:54 54.89239 23.48708 30890 ft 455 kts 18°
2026-05-05 15:54 54.95060 23.53026 30885 ft 455 kts 18°
2026-05-05 15:55 55.00886 23.57369 30895 ft 456 kts 18°
2026-05-05 15:55 55.06681 23.61718 30907 ft 457 kts 18°
2026-05-05 15:56 55.12525 23.66125 30883 ft 458 kts 18°
2026-05-05 15:56 55.18383 23.70538 30878 ft 459 kts 18°
2026-05-05 15:57 55.24251 23.74968 30877 ft 459 kts 18°
2026-05-05 15:57 55.30119 23.79412 30876 ft 460 kts 18°
2026-05-05 15:58 55.35995 23.83881 30888 ft 460 kts 18°
2026-05-05 15:58 55.41877 23.88370 30416 ft 463 kts 18°
2026-05-05 15:58 55.44841 23.90642 29717 ft 464 kts 18°
2026-05-05 15:59 55.47780 23.92910 29217 ft 458 kts 18°
2026-05-05 15:59 55.50688 23.95157 28689 ft 454 kts 18°
2026-05-05 15:59 55.53567 23.97378 28189 ft 449 kts 18°
2026-05-05 15:59 55.56415 23.99576 27711 ft 445 kts 18°
2026-05-05 16:00 55.59240 24.01755 27191 ft 441 kts 18°
2026-05-05 16:00 55.62037 24.03912 26700 ft 437 kts 18°
2026-05-05 16:00 55.64815 24.06054 26206 ft 433 kts 18°
2026-05-05 16:00 55.67567 24.08180 25689 ft 430 kts 18°
2026-05-05 16:01 55.70299 24.10294 25185 ft 427 kts 18°
2026-05-05 16:01 55.73017 24.12406 24657 ft 425 kts 18°
2026-05-05 16:01 55.75717 24.14513 24183 ft 422 kts 18°
2026-05-05 16:01 55.78397 24.16610 23656 ft 421 kts 18°
2026-05-05 16:02 55.81055 24.18693 23309 ft 414 kts 18°
2026-05-05 16:02 55.83680 24.20750 22548 ft 412 kts 18°
2026-05-05 16:02 55.86289 24.22798 21976 ft 406 kts 18°
2026-05-05 16:02 55.88855 24.24818 21486 ft 400 kts 18°
2026-05-05 16:03 55.91397 24.26817 20991 ft 399 kts 18°
2026-05-05 16:03 55.93933 24.28807 20504 ft 398 kts 18°
2026-05-05 16:03 55.96462 24.30798 20014 ft 397 kts 19°
2026-05-05 16:03 55.98982 24.32782 19529 ft 396 kts 19°
2026-05-05 16:04 56.01491 24.34761 19110 ft 392 kts 19°
2026-05-05 16:04 56.03963 24.36716 18569 ft 383 kts 19°
2026-05-05 16:04 56.06362 24.38627 18107 ft 372 kts 18°
2026-05-05 16:04 56.08695 24.40490 17620 ft 361 kts 19°
2026-05-05 16:05 56.10957 24.42300 17192 ft 350 kts 19°
2026-05-05 16:05 56.13152 24.44052 16779 ft 341 kts 18°
2026-05-05 16:05 56.15288 24.45748 16379 ft 332 kts 18°
2026-05-05 16:05 56.17377 24.47403 15995 ft 327 kts 18°
2026-05-05 16:06 56.19465 24.49056 15606 ft 329 kts 19°
2026-05-05 16:06 56.21568 24.50724 15217 ft 331 kts 19°
2026-05-05 16:06 56.23682 24.52410 14828 ft 333 kts 19°
2026-05-05 16:06 56.25806 24.54110 14432 ft 335 kts 20°
2026-05-05 16:07 56.27942 24.55822 14035 ft 337 kts 20°
2026-05-05 16:07 56.30094 24.57548 13632 ft 339 kts 20°
2026-05-05 16:07 56.32249 24.59284 13208 ft 340 kts 20°
2026-05-05 16:07 56.34451 24.60717 12838 ft 333 kts
2026-05-05 16:08 56.36710 24.61087 12580 ft 320 kts 351°
2026-05-05 16:08 56.38840 24.60472 12184 ft 311 kts 336°
2026-05-05 16:08 56.40783 24.58976 11853 ft 301 kts 324°
2026-05-05 16:08 56.42608 24.57072 11575 ft 296 kts 323°
2026-05-05 16:09 56.44353 24.55241 11163 ft 293 kts 324°
2026-05-05 16:09 56.46197 24.53640 10650 ft 294 kts 330°
2026-05-05 16:09 56.48053 24.52195 10255 ft 287 kts 330°
2026-05-05 16:09 56.49869 24.50777 9878 ft 281 kts 330°
2026-05-05 16:10 56.51645 24.49387 9482 ft 275 kts 330°
2026-05-05 16:10 56.53388 24.48021 9095 ft 273 kts 330°
2026-05-05 16:10 56.55125 24.46655 8681 ft 272 kts 330°
2026-05-05 16:10 56.56864 24.45287 8315 ft 272 kts 331°
2026-05-05 16:11 56.58622 24.43900 7613 ft 279 kts 332°
2026-05-05 16:11 56.63635 24.39979 6698 ft 241 kts 330°
2026-05-05 16:12 56.65052 24.38470 6779 ft 241 kts 316°
2026-05-05 16:12 56.67680 24.34701 6085 ft 239 kts 316°
2026-05-05 16:13 56.71535 24.29143 5212 ft 232 kts 317°
2026-05-05 16:13 56.72799 24.27330 5015 ft 232 kts 318°
2026-05-05 16:13 56.74064 24.25509 4750 ft 231 kts 318°
2026-05-05 16:14 56.76566 24.21896 4175 ft 228 kts 317°
2026-05-05 16:14 56.79032 24.18336 3601 ft 224 kts 319°
2026-05-05 16:15 56.80984 24.15323 3132 ft 218 kts 306°
2026-05-05 16:15 56.82020 24.10434 2918 ft 204 kts 282°
2026-05-05 16:16 56.82681 24.05381 2923 ft 206 kts 283°
2026-05-05 16:16 56.83349 24.00291 2919 ft 206 kts 283°
2026-05-05 16:17 56.83078 23.95266 2918 ft 208 kts 236°
2026-05-05 16:17 56.81976 23.93541 2916 ft 213 kts 213°
2026-05-05 16:18 56.79429 23.90771 2913 ft 213 kts 214°
2026-05-05 16:18 56.78160 23.89386 2914 ft 213 kts 214°
2026-05-05 16:18 56.75632 23.86634 2905 ft 204 kts 214°
2026-05-05 16:19 56.74452 23.85357 2900 ft 191 kts 214°
2026-05-05 16:19 56.73329 23.84136 2892 ft 185 kts 214°
2026-05-05 16:19 56.71129 23.81735 2876 ft 185 kts 214°
2026-05-05 16:20 56.68650 23.80704 2878 ft 194 kts 170°
2026-05-05 16:20 56.66559 23.83717 2887 ft 203 kts 114°
2026-05-05 16:21 56.66626 23.88646 2891 ft 200 kts 58°
2026-05-05 16:22 56.69597 23.93324 2703 ft 189 kts
2026-05-05 16:22 56.72179 23.93816 2552 ft 186 kts
2026-05-05 16:23 56.74712 23.94224 2421 ft 175 kts
2026-05-05 16:23 56.75911 23.94420 2327 ft 168 kts
2026-05-05 16:23 56.78189 23.94791 2194 ft 163 kts
2026-05-05 16:24 56.79317 23.94975 2119 ft 163 kts
2026-05-05 16:24 56.80420 23.95156 2074 ft 159 kts
2026-05-05 16:24 56.82456 23.95492 1717 ft 141 kts
2026-05-05 16:25 56.83426 23.95650 1533 ft 139 kts
2026-05-05 16:25 56.85332 23.95962 1160 ft 137 kts
2026-05-05 16:25 56.86280 23.96118 967 ft 136 kts
2026-05-05 16:26 56.88147 23.96427 604 ft 133 kts
2026-05-05 16:26 56.89981 23.96723 237 ft 131 kts
2026-05-05 16:27 56.90890 23.96881 50 ft 130 kts
2026-05-05 16:27 56.91660 23.96997 44 ft 86 kts
2026-05-05 16:27 56.92086 23.97066 44 ft 41 kts
2026-05-05 16:27 56.92303 23.97115 45 ft 23 kts 15°
2026-05-05 16:28 56.92450 23.97235 42 ft 23 kts 32°
2026-05-05 16:28 56.92549 23.97363 44 ft 12 kts 35°
2026-05-05 16:28 56.92605 23.97438 44 ft 7 kts 49°
2026-05-05 16:28 56.92607 23.97519 44 ft 8 kts 122°
2026-05-05 16:29 56.92507 23.97534 44 ft 16 kts 184°
2026-05-05 16:29 56.92404 23.97539 44 ft 14 kts 142°
2026-05-05 16:29 56.92389 23.97691 44 ft 11 kts 95°
2026-05-05 16:29 56.92398 23.97774 41 ft 2 kts
2026-05-05 16:30 56.92426 23.97780 44 ft 9 kts
2026-05-05 16:30 56.92444 23.97784 44 ft 0 kts